User: anonymous   Login
Location: Unspecified
(0.0000°N, 0.0000°E)
Time: 12:51:54
(UTC+00:00)
Language:

USA 97 - Orbit

View from above orbital plane
View from above orbital plane
View from above satellite
View from above satellite

Ground track
Ground track

The orbit data is extracted from the following two-line orbital elements,

1 22915U 93074A   17162.40695878 0.00000000  00000-0  00000-0 0    09
2 22915  10.7072  38.3309 0008321 284.6033  75.3165  0.98535491    05
Epoch (UTC): 11 June 2017 09:46:01
Eccentricity: 0.0008321
inclination: 10.7072°
perigee height: 36244 km
apogee height: 36315 km
right ascension of ascending node: 38.3309°
argument of perigee: 284.6033°
revolutions per day: 0.98535491
mean anomaly at epoch: 75.3165°
orbit number at epoch: 0

The dashed part of the orbit path shows where the satellite is in the earth's shadow,  

DLR